Location: Pinawa
(50.1500°N, 95.8830°W)
Time: 05:14:32
(UTC-05:00)

Amateur Radio Satellites - All Passes

Search period start: 28 September 2016 04:44
Search period end: 29 September 2016 04:44
Location: Pinawa, 50.1500°N, 95.8830°W

Satellite Date Start Highest point End Downlink Frequencies (MHz)
Time Altitude Azimuth
PCSat 28 Sep 04:46:16 04:50:56 30° 112° (ESE) 04:55:37 145.827
Gurwin Techsat 1B 28 Sep 04:49:53 04:54:34 32° 298° (WNW) 04:59:14 435.225
AO-7 28 Sep 04:55:10 05:03:16 53° 102° (ESE) 05:11:19 29.400- 29.500
STARS 28 Sep 04:55:29 04:59:53 88° 73° (ENE) 05:04:18 437.465
BEESAT 3 28 Sep 05:03:16 05:05:01 12° 343° (NNW) 05:06:46 437.485
AIST 2 28 Sep 05:03:35 05:07:41 73° 127° (SE) 05:11:51 435.215
Cosmos 2504 28 Sep 05:10:18 05:17:39 88° 100° (E) 05:24:52 435.465 / 435.565
Cosmos 2491 28 Sep 05:17:03 05:22:00 17° 289° (WNW) 05:26:57 435.465 / 435.565
CUBESAT XI-V 28 Sep 05:17:42 05:22:21 64° 72° (ENE) 05:27:02 437.345
HORYU 2 28 Sep 05:30:00 05:32:35 15° 89° (E) 05:35:11 437.375
MOZHAYETS 4 28 Sep 05:36:59 05:39:54 16° 272° (W) 05:42:49
BRITE-PL 28 Sep 05:40:20 05:42:30 13° 83° (E) 05:44:37 437.365/2234.400
DANDE 28 Sep 05:58:00 06:05:10 31° 59° (ENE) 06:12:15 436.750
AIST 1 28 Sep 05:59:56 06:04:17 65° 97° (E) 06:08:38
BEESAT 2 28 Sep 06:00:21 06:01:27 11° 350° (N) 06:02:34 435.950
KKS-1 28 Sep 06:01:40 06:03:48 13° 272° (W) 06:05:58 437.445
CUSAT 1 28 Sep 06:08:29 06:16:20 58° 70° (ENE) 06:23:07 437.405
AO-85 28 Sep 06:10:02 06:14:19 79° 233° (SW) 06:18:18 145.980
RS-15 28 Sep 06:18:44 06:30:41 59° 244° (WSW) 06:42:26 29.354- 29.394
YUBILEINY 28 Sep 06:23:10 06:29:44 23° 306° (NW) 06:36:20 435.215
ITAMSAT 1 28 Sep 06:24:25 06:27:59 19° 305° (NW) 06:31:33 435.822/435.867
STRAND 1 28 Sep 06:26:10 06:30:11 24° 59° (ENE) 06:34:13 437.568
NOAA 15 28 Sep 06:28:36 06:32:13 18° 89° (E) 06:35:49 137.62
PCSat 28 Sep 06:28:44 06:34:04 56° 312° (NW) 06:39:26 145.827
STARS 28 Sep 06:35:14 06:36:53 12° 273° (W) 06:38:32 437.465
AIST 2 28 Sep 06:43:12 06:46:36 24° 328° (NNW) 06:50:01 435.215
BEESAT 3 28 Sep 06:43:49 06:44:25 10° 8° (N) 06:45:00 437.485
Cubesat XI-IV 28 Sep 06:45:16 06:49:17 21° 90° (E) 06:53:17 437.490
CUTE-I 28 Sep 06:45:20 06:49:23 21° 90° (E) 06:53:24 437.470
AO-7 28 Sep 06:48:13 06:55:59 47° 303° (WNW) 07:03:46 29.400- 29.500
CUBESAT XI-V 28 Sep 06:56:54 07:00:11 19° 271° (W) 07:03:29 437.345
HORYU 2 28 Sep 07:05:12 07:09:39 72° 288° (WNW) 07:14:06 437.375
GOMX 1 28 Sep 07:05:16 07:09:18 32° 94° (E) 07:13:08 467.674
Cosmos 2504 28 Sep 07:06:42 07:12:06 22° 302° (WNW) 07:17:28 435.465 / 435.565
BRITE-PL 28 Sep 07:16:53 07:21:53 89° 305° (NW) 07:26:26 437.365/2234.400
DOVE 4 28 Sep 07:25:38 07:28:59 22° 92° (E) 07:32:15 437.250
NOAA 18 28 Sep 07:27:59 07:33:01 36° 97° (E) 07:38:03 137.9125
HO-68 28 Sep 07:39:04 07:42:21 13° 83° (E) 07:45:37 435.675
BEESAT 2 28 Sep 07:39:27 07:41:01 12° 14° (NNE) 07:42:35 435.950
AIST 1 28 Sep 07:39:31 07:42:21 17° 296° (WNW) 07:45:12
DANDE 28 Sep 07:40:30 07:48:53 83° 261° (W) 07:56:57 436.750
LilacSat-2 28 Sep 07:46:44 07:50:34 76° 102° (ESE) 07:54:25 437.200
CUSAT 1 28 Sep 07:50:59 07:58:03 38° 274° (W) 08:04:14 437.405
AO-85 28 Sep 07:53:14 07:53:53 10° 252° (WSW) 07:54:31 145.980
O/OREOS (USA 219) 28 Sep 07:56:15 08:00:36 46° 110° (ESE) 08:05:01 437.305
STRAND 1 28 Sep 08:03:56 08:08:59 61° 258° (WSW) 08:14:05 437.568
NOAA 15 28 Sep 08:07:17 08:12:37 77° 288° (WNW) 08:17:54 137.62
PRISM 28 Sep 08:12:14 08:15:26 22° 62° (ENE) 08:18:39 437.425
PCSat 28 Sep 08:14:48 08:18:39 19° 336° (NNW) 08:22:31 145.827
BEESAT 3 28 Sep 08:20:23 08:23:30 21° 31° (NNE) 08:26:36 437.485
Cosmos 2499 28 Sep 08:22:13 08:27:34 24° 80° (E) 08:32:54 435.465 / 435.565
Cubesat XI-IV 28 Sep 08:24:31 08:29:52 68° 289° (WNW) 08:35:11 437.490
CUTE-I 28 Sep 08:24:36 08:29:55 67° 289° (WNW) 08:35:13 437.470
AIST 2 28 Sep 08:25:05 08:26:31 11° 352° (N) 08:27:58 435.215
RS-15 28 Sep 08:34:02 08:40:16 16° 268° (W) 08:46:29 29.354- 29.394
CINEMA 3 28 Sep 08:35:02 08:38:45 31° 96° (E) 08:42:30 145.822/145.860
AO-7 28 Sep 08:42:13 08:46:50 16° 327° (NNW) 08:51:27 29.400- 29.500
GOMX 1 28 Sep 08:43:24 08:47:25 31° 295° (WNW) 08:51:11 467.674
HORYU 2 28 Sep 08:43:50 08:45:26 12° 307° (NW) 08:47:01 437.375
GONETS M04 28 Sep 08:45:27 08:53:38 45° 86° (E) 09:01:51
CUTE 1.7 + AOD 2 28 Sep 08:46:19 08:50:09 31° 95° (E) 08:53:58 437.475
SEEDS 28 Sep 08:47:25 08:50:51 23° 92° (E) 08:54:16 437.485
CANX-2 28 Sep 08:47:32 08:51:32 36° 96° (E) 08:55:30 2200.000
BRITE-PL 28 Sep 08:56:43 08:59:34 15° 306° (NW) 09:02:18 437.365/2234.400
DOVE 4 28 Sep 09:02:54 09:06:56 41° 291° (WNW) 09:10:49 437.250
NOAA 18 28 Sep 09:08:40 09:13:45 41° 296° (WNW) 09:18:50 137.9125
AAUSAT CUBESAT 2 28 Sep 09:09:08 09:12:24 21° 92° (E) 09:15:39 437.432
BEESAT 2 28 Sep 09:16:28 09:20:03 30° 37° (NE) 09:23:39 435.950
ANTELSAT 28 Sep 09:20:30 09:23:10 16° 59° (ENE) 09:25:51 437.575/2403.000
LilacSat-2 28 Sep 09:22:35 09:24:21 13° 301° (WNW) 09:26:08 437.200
HO-68 28 Sep 09:24:23 09:31:31 65° 103° (ESE) 09:38:36 435.675
DANDE 28 Sep 09:24:30 09:30:36 23° 281° (W) 09:36:33 436.750
O/OREOS (USA 219) 28 Sep 09:36:14 09:40:13 28° 310° (NW) 09:44:14 437.305
CUBEBUG 2 28 Sep 09:39:57 09:44:01 42° 98° (E) 09:48:09 437.445
TIGRISAT 28 Sep 09:40:07 09:43:26 23° 63° (ENE) 09:46:47 435.000
FUNcube-1 28 Sep 09:44:01 09:47:17 21° 92° (E) 09:50:35 145.935
PRISM 28 Sep 09:46:26 09:50:28 47° 260° (W) 09:54:33 437.425
NOAA 15 28 Sep 09:48:31 09:51:34 16° 308° (NW) 09:54:35 137.62
COMPASS 1 28 Sep 09:53:11 09:57:26 72° 102° (ESE) 10:01:39 437.405
UWE-3 28 Sep 09:57:14 10:01:20 42° 98° (E) 10:05:32 435.000/436.395/437.385
BEESAT 3 28 Sep 09:57:38 10:01:38 81° 232° (SW) 10:05:37 437.485
PCSat 28 Sep 10:01:43 10:04:16 13° 2° (N) 10:06:49 145.827
AIST 2 28 Sep 10:04:40 10:06:46 13° 16° (NNE) 10:08:52 435.215
Cubesat XI-IV 28 Sep 10:06:20 10:09:01 14° 309° (NW) 10:11:41 437.490
CUTE-I 28 Sep 10:06:24 10:09:02 14° 310° (NW) 10:11:40 437.470
JAS-2 28 Sep 10:06:26 10:10:44 17° 44° (NE) 10:15:13 435.910
CINEMA 3 28 Sep 10:12:15 10:15:55 30° 294° (WNW) 10:19:35 145.822/145.860
Cosmos 2499 28 Sep 10:12:49 10:19:55 74° 282° (WNW) 10:27:03 435.465 / 435.565
UNISAT 6 28 Sep 10:19:51 10:24:00 55° 71° (ENE) 10:28:12 437.425
CUTE 1.7 + AOD 2 28 Sep 10:22:08 10:26:00 33° 293° (WNW) 10:29:50 437.475
SEEDS 28 Sep 10:22:41 10:26:45 42° 291° (WNW) 10:30:46 437.485
Oscar 11 28 Sep 10:22:59 10:27:14 49° 99° (E) 10:31:28 145.826/435.025
CANX-2 28 Sep 10:23:35 10:27:18 29° 295° (WNW) 10:30:59 2200.000
NANOSAT C BR1 28 Sep 10:25:26 10:26:47 11° 55° (NE) 10:28:08 145.865
ZACube-1 28 Sep 10:25:40 10:29:53 54° 100° (E) 10:34:12 437.345
DELFI C3 28 Sep 10:25:51 10:29:03 22° 93° (E) 10:32:14 145.870
GONETS M04 28 Sep 10:41:48 10:50:22 52° 289° (WNW) 10:59:01
HUMSAT D 28 Sep 10:43:06 10:46:10 19° 91° (E) 10:49:16 437.325/437.525
AAUSAT CUBESAT 2 28 Sep 10:44:04 10:48:06 44° 290° (WNW) 10:52:05 437.432
QB50P2 28 Sep 10:47:19 10:50:20 20° 61° (ENE) 10:53:22 145.880/145.840
POLYITAN 1 28 Sep 10:49:32 10:52:33 20° 61° (ENE) 10:55:34 437.675
BEESAT 2 28 Sep 10:54:10 10:58:02 46° 237° (WSW) 11:01:52 435.950
ANTELSAT 28 Sep 10:55:11 10:59:25 68° 257° (WSW) 11:03:42 437.575/2403.000
HO-68 28 Sep 11:12:37 11:18:52 34° 304° (NW) 11:25:06 435.675
TIGRISAT 28 Sep 11:15:50 11:19:55 45° 261° (W) 11:24:01 435.000
CUBEBUG 2 28 Sep 11:17:01 11:20:29 25° 296° (WNW) 11:24:00 437.445
FUNcube-1 28 Sep 11:19:37 11:23:47 49° 289° (WNW) 11:28:01 145.935
DUCHIFAT 1 28 Sep 11:25:50 11:29:38 35° 67° (ENE) 11:33:28 145.980
BUGSAT 1 28 Sep 11:27:30 11:30:16 18° 60° (ENE) 11:33:02 437.445
QB50P1 28 Sep 11:28:19 11:32:17 42° 69° (ENE) 11:36:16 145.935-145.965
COMPASS 1 28 Sep 11:29:56 11:32:29 16° 301° (WNW) 11:35:01 437.405
ESTCUBE 1 28 Sep 11:31:56 11:33:21 11° 85° (E) 11:34:46 437.505/2401.250
UWE-3 28 Sep 11:34:09 11:37:38 25° 296° (WNW) 11:41:10 435.000/436.395/437.385
BEESAT 3 28 Sep 11:37:32 11:38:37 11° 250° (WSW) 11:39:40 437.485
POPSAT HIP 1 28 Sep 11:41:43 11:45:49 56° 71° (ENE) 11:49:57 437.405
AIST 2 28 Sep 11:42:31 11:46:25 35° 39° (NE) 11:50:18 435.215
PCSat 28 Sep 11:45:38 11:49:47 22° 28° (NNE) 11:53:56 145.827
JAS-2 28 Sep 11:47:38 11:54:12 59° 66° (ENE) 12:01:33 435.910
Oscar 19 28 Sep 11:57:10 11:59:35 13° 51° (NE) 12:02:00 437.125/150
NANOSAT C BR1 28 Sep 11:57:37 12:01:48 78° 74° (ENE) 12:06:00 145.865
UNISAT 6 28 Sep 11:58:10 12:01:06 18° 270° (W) 12:04:02 437.425
Oscar 11 28 Sep 11:59:42 12:03:06 23° 298° (WNW) 12:06:30 145.826/435.025
DELFI C3 28 Sep 12:00:16 12:04:03 39° 291° (WNW) 12:07:47 145.870
ZACube-1 28 Sep 12:02:41 12:05:52 21° 298° (WNW) 12:09:06 437.345
Cosmos 2499 28 Sep 12:10:04 12:14:30 17° 307° (NW) 12:18:59 435.465 / 435.565
HUMSAT D 28 Sep 12:17:57 12:22:06 52° 289° (WNW) 12:26:15 437.325/437.525
AISAT 28 Sep 12:20:42 12:23:40 18° 90° (E) 12:26:37 437.250
PHONESAT 2.4 28 Sep 12:20:48 12:21:22 10° 167° (SSE) 12:21:54 2401.200-2431.200
QB50P2 28 Sep 12:21:41 12:25:48 54° 259° (W) 12:29:57 145.880/145.840
AO-7 28 Sep 12:22:32 12:25:09 12° 23° (NNE) 12:27:46 29.400- 29.500
POLYITAN 1 28 Sep 12:23:54 12:28:01 54° 260° (W) 12:32:09 437.675
YUBILEINY 28 Sep 12:31:03 12:36:52 19° 50° (NE) 12:42:40 435.215
GONETS M04 28 Sep 12:45:10 12:49:50 15° 316° (NW) 12:54:32
DX 1 28 Sep 12:53:57 12:57:23 22° 93° (E) 13:00:47 434.975-435.025
Gurwin Techsat 1B 28 Sep 12:57:26 13:01:19 21° 56° (ENE) 13:05:11 435.225
BUGSAT 1 28 Sep 13:01:15 13:05:17 57° 259° (W) 13:09:17 437.445
DUCHIFAT 1 28 Sep 13:01:51 13:05:25 27° 266° (W) 13:08:59 145.980
VELOX 1 28 Sep 13:03:26 13:07:38 41° 98° (E) 13:11:47 145.980
HO-68 28 Sep 13:03:48 13:04:31 10° 328° (NNW) 13:05:15 435.675
QB50P1 28 Sep 13:04:54 13:08:14 23° 267° (W) 13:11:36 145.935-145.965
CUBEBUG 1 28 Sep 13:06:11 13:10:29 56° 100° (E) 13:14:44 437.445
ESTCUBE 1 28 Sep 13:06:18 13:10:54 84° 104° (ESE) 13:15:25 437.505/2401.250
Cosmos 2504 28 Sep 13:06:43 13:07:24 10° 44° (NE) 13:08:05 435.465 / 435.565
POPSAT HIP 1 28 Sep 13:19:09 13:21:58 17° 269° (W) 13:24:47 437.405
50 SAT 28 Sep 13:19:38 13:23:17 60° 101° (E) 13:26:55 437.505
AIST 2 28 Sep 13:21:01 13:24:57 39° 239° (WSW) 13:28:52 435.215
PCSat 28 Sep 13:28:44 13:34:11 70° 51° (NE) 13:39:35 145.827
M-CUBED/EXP-1 PRIME 28 Sep 13:31:29 13:34:28 31° 103° (ESE) 13:37:24 437.505
Oscar 19 28 Sep 13:32:50 13:37:59 67° 71° (ENE) 13:43:10 437.125/150
JAS-2 28 Sep 13:33:39 13:39:39 34° 269° (W) 13:46:18 435.910
NANOSAT C BR1 28 Sep 13:36:13 13:38:05 13° 272° (W) 13:39:57 145.865
SPROUT 28 Sep 13:44:21 13:48:35 62° 101° (E) 13:52:48 437.525
PHONESAT 2.4 28 Sep 13:55:14 13:56:42 13° 184° (S) 13:58:11 2401.200-2431.200
AISAT 28 Sep 13:56:11 14:00:33 60° 289° (WNW) 14:04:51 437.250
UKube-1 28 Sep 13:59:38 14:03:58 75° 104° (ESE) 14:08:16 .
AO-7 28 Sep 14:08:23 14:15:21 31° 48° (NE) 14:22:19 29.400- 29.500
YUBILEINY 28 Sep 14:26:58 14:35:41 67° 76° (ENE) 14:44:20 435.215
AUBIESAT-1 28 Sep 14:27:46 14:31:04 65° 293° (WNW) 14:34:21 437.475
ITAMSAT 1 28 Sep 14:27:55 14:32:32 34° 63° (ENE) 14:37:11 435.822/435.867
Cosmos 2491 28 Sep 14:29:34 14:36:58 32° 81° (E) 14:44:24 435.465 / 435.565
DX 1 28 Sep 14:29:38 14:33:49 46° 291° (WNW) 14:37:56 434.975-435.025
BEESAT 28 Sep 14:30:45 14:31:06 10° 84° (E) 14:31:28 436.000
Gurwin Techsat 1B 28 Sep 14:35:25 14:40:43 76° 257° (WSW) 14:46:04 435.225
VELOX 1 28 Sep 14:40:15 14:43:56 26° 297° (WNW) 14:47:36 145.980
CUBEBUG 1 28 Sep 14:43:15 14:46:25 20° 300° (WNW) 14:49:33 437.445
ESTCUBE 1 28 Sep 14:44:26 14:47:06 16° 303° (WNW) 14:49:46 437.505/2401.250
SO-50 28 Sep 14:49:55 14:51:56 13° 109° (ESE) 14:53:57 436.795
50 SAT 28 Sep 14:54:18 14:56:22 15° 300° (WNW) 14:58:26 437.505
Cosmos 2504 28 Sep 14:56:12 15:03:09 43° 70° (ENE) 15:10:29 435.465 / 435.565
TISAT 1 28 Sep 15:02:27 15:06:39 85° 102° (ESE) 15:10:50 437.305
M-CUBED/EXP-1 PRIME 28 Sep 15:06:22 15:08:54 20° 302° (WNW) 15:11:23 437.505
PCSat 28 Sep 15:12:52 15:17:06 24° 251° (WSW) 15:21:20 145.827
Oscar 19 28 Sep 15:13:57 15:17:48 21° 270° (W) 15:21:39 437.125/150
SPROUT 28 Sep 15:21:14 15:24:06 18° 300° (WNW) 15:26:58 437.525
UKube-1 28 Sep 15:36:51 15:39:29 16° 303° (WNW) 15:42:07 .
ITUPSAT 1 28 Sep 15:39:26 15:44:01 42° 98° (E) 15:48:35 437.325
MOZHAYETS 4 28 Sep 15:49:53 15:51:42 12° 86° (E) 15:53:29
SWISSCUBE 28 Sep 15:52:04 15:56:50 61° 102° (ESE) 16:01:36 437.505
AO-7 28 Sep 15:59:02 16:07:23 83° 251° (WSW) 16:15:46 29.400- 29.500
AIST 1 28 Sep 16:02:26 16:06:06 26° 69° (ENE) 16:09:44
BEESAT 28 Sep 16:04:58 16:09:47 72° 104° (ESE) 16:14:34 436.000
ITAMSAT 1 28 Sep 16:07:04 16:11:56 41° 262° (W) 16:16:51 435.822/435.867
KKS-1 28 Sep 16:10:44 16:12:03 11° 86° (E) 16:13:21 437.445
Gurwin Techsat 1B 28 Sep 16:19:27 16:21:36 12° 275° (W) 16:23:45 435.225
O/OREOS (USA 219) 28 Sep 16:22:26 16:26:34 31° 51° (NE) 16:30:39 437.305
Cosmos 2491 28 Sep 16:24:21 16:33:08 71° 284° (WNW) 16:42:01 435.465 / 435.565
YUBILEINY 28 Sep 16:24:28 16:31:54 33° 278° (W) 16:39:18 435.215
SO-50 28 Sep 16:26:49 16:31:39 73° 127° (SE) 16:36:24 436.795
HORYU 2 28 Sep 16:31:59 16:35:37 25° 62° (ENE) 16:39:14 437.375
CUTE-I 28 Sep 16:36:10 16:37:38 11° 47° (NE) 16:39:06 437.470
Cubesat XI-IV 28 Sep 16:36:17 16:37:43 11° 47° (NE) 16:39:09 437.490
TISAT 1 28 Sep 16:39:38 16:41:43 14° 303° (WNW) 16:43:46 437.305
STARS 28 Sep 16:42:18 16:43:45 11° 87° (E) 16:45:13 437.465
GOMX 1 28 Sep 16:42:42 16:44:41 12° 53° (NE) 16:46:38 467.674
Cosmos 2504 28 Sep 16:49:40 16:56:37 47° 271° (W) 17:03:59 435.465 / 435.565
BRITE-PL 28 Sep 16:53:38 16:58:28 30° 63° (ENE) 17:03:09 437.365/2234.400
CUBESAT XI-V 28 Sep 17:11:40 17:13:20 12° 85° (E) 17:15:00 437.345
ITUPSAT 1 28 Sep 17:17:32 17:21:43 30° 297° (WNW) 17:25:53 437.325
NOAA 18 28 Sep 17:20:26 17:24:24 21° 55° (NE) 17:28:22 137.9125
MOZHAYETS 4 28 Sep 17:24:54 17:29:34 86° 101° (E) 17:34:14
SWISSCUBE 28 Sep 17:30:36 17:34:15 22° 301° (WNW) 17:37:55 437.505
AIST 1 28 Sep 17:39:52 17:43:47 35° 269° (W) 17:47:40
BEESAT 28 Sep 17:43:42 17:47:03 19° 303° (WNW) 17:50:25 436.000
KKS-1 28 Sep 17:44:51 17:49:20 86° 109° (ESE) 17:53:45 437.445
NOAA 15 28 Sep 17:52:40 17:57:43 45° 66° (ENE) 18:02:47 137.62
AO-7 28 Sep 17:55:27 18:01:25 21° 272° (W) 18:07:25 29.400- 29.500
O/OREOS (USA 219) 28 Sep 18:01:45 18:06:07 41° 251° (WSW) 18:10:24 437.305
Cosmos 2499 28 Sep 18:05:47 18:09:09 13° 48° (NE) 18:12:35 435.465 / 435.565
HORYU 2 28 Sep 18:07:46 18:11:59 43° 261° (W) 18:16:13 437.375
SO-50 28 Sep 18:08:24 18:12:34 28° 328° (NNW) 18:16:41 436.795
CUTE-I 28 Sep 18:11:25 18:16:33 53° 68° (ENE) 18:21:44 437.470
Cubesat XI-IV 28 Sep 18:11:31 18:16:40 52° 68° (ENE) 18:21:50 437.490
HO-68 28 Sep 18:12:48 18:17:50 21° 47° (NE) 18:22:53 435.675
STARS 28 Sep 18:16:23 18:20:47 90° 106° (ESE) 18:25:09 437.465
GOMX 1 28 Sep 18:16:39 18:21:55 62° 72° (ENE) 18:26:54 467.674
Cosmos 2491 28 Sep 18:25:45 18:31:54 20° 309° (NW) 18:38:06 435.465 / 435.565
BRITE-PL 28 Sep 18:31:05 18:36:39 55° 261° (W) 18:42:06 437.365/2234.400
LilacSat-2 28 Sep 18:32:50 18:36:35 72° 74° (ENE) 18:40:22 437.200
DOVE 4 28 Sep 18:34:41 18:39:18 42° 69° (ENE) 18:43:42 437.250
RS-15 28 Sep 18:41:11 18:47:45 17° 93° (E) 18:54:27 29.354- 29.394
CUBESAT XI-V 28 Sep 18:46:44 18:51:29 83° 103° (ESE) 18:56:10 437.345
GONETS M04 28 Sep 18:49:22 18:56:54 30° 59° (ENE) 19:04:20
NOAA 18 28 Sep 18:59:00 19:04:29 80° 255° (WSW) 19:09:59 137.9125
MOZHAYETS 4 28 Sep 19:03:23 19:06:08 16° 303° (WNW) 19:08:51
DANDE 28 Sep 19:13:31 19:17:13 17° 75° (ENE) 19:21:27 436.750
CUSAT 1 28 Sep 19:14:00 19:20:12 43° 88° (E) 19:27:26 437.405
COMPASS 1 28 Sep 19:15:30 19:17:16 12° 56° (NE) 19:19:02 437.405
KKS-1 28 Sep 19:22:50 19:25:16 15° 304° (NW) 19:27:44 437.445
NOAA 15 28 Sep 19:32:57 19:37:39 31° 265° (W) 19:42:23 137.62
CINEMA 3 28 Sep 19:40:51 19:45:07 50° 71° (ENE) 19:49:14 145.822/145.860
CUTE 1.7 + AOD 2 28 Sep 19:43:10 19:47:07 38° 68° (ENE) 19:51:06 437.475
SEEDS 28 Sep 19:43:23 19:47:01 29° 66° (ENE) 19:50:42 437.485
CANX-2 28 Sep 19:44:28 19:48:31 45° 69° (ENE) 19:52:36 2200.000
Oscar 11 28 Sep 19:50:12 19:50:51 10° 53° (NE) 19:51:30 145.826/435.025
SO-50 28 Sep 19:51:53 19:54:32 15° 352° (N) 19:57:09 436.795
CUTE-I 28 Sep 19:52:28 19:56:54 27° 267° (W) 20:01:23 437.470
Cubesat XI-IV 28 Sep 19:52:34 19:57:01 27° 267° (W) 20:01:31 437.490
ZACube-1 28 Sep 19:53:40 19:54:25 10° 54° (NE) 19:55:10 437.345
STARS 28 Sep 19:54:16 19:56:31 14° 304° (NW) 19:58:45 437.465
GOMX 1 28 Sep 19:56:14 20:00:20 22° 269° (W) 20:04:18 467.674
Cosmos 2499 28 Sep 19:56:57 20:04:14 53° 73° (ENE) 20:12:02 435.465 / 435.565
HO-68 28 Sep 19:57:22 20:04:31 75° 69° (ENE) 20:11:41 435.675
AAUSAT CUBESAT 2 28 Sep 20:03:37 20:07:06 26° 65° (ENE) 20:10:37 437.432
STRAND 1 28 Sep 20:09:46 20:14:24 32° 95° (E) 20:19:01 437.568
LilacSat-2 28 Sep 20:10:07 20:11:23 11° 273° (W) 20:12:38 437.200
DOVE 4 28 Sep 20:12:53 20:17:07 28° 266° (W) 20:21:11 437.250
CUBESAT XI-V 28 Sep 20:25:23 20:28:15 16° 303° (WNW) 20:31:08 437.345
AO-85 28 Sep 20:30:40 20:32:49 13° 109° (ESE) 20:34:55 145.980
CUBEBUG 2 28 Sep 20:42:28 20:46:35 60° 72° (ENE) 20:50:41 437.445
NOAA 18 28 Sep 20:43:24 20:46:02 14° 274° (W) 20:48:41 137.9125
FUNcube-1 28 Sep 20:44:00 20:47:30 27° 65° (ENE) 20:51:01 145.935
GONETS M04 28 Sep 20:45:55 20:54:47 80° 263° (W) 21:03:31
RS-15 28 Sep 20:46:03 20:57:27 63° 118° (ESE) 21:09:24 29.354- 29.394
COMPASS 1 28 Sep 20:47:57 20:52:09 86° 78° (ENE) 20:56:24 437.405
DANDE 28 Sep 20:52:58 20:58:32 84° 100° (E) 21:05:55 436.750
CUSAT 1 28 Sep 20:55:35 21:02:08 50° 292° (WNW) 21:09:47 437.405
UWE-3 28 Sep 20:58:39 21:02:43 59° 72° (ENE) 21:06:50 435.000/436.395/437.385
DELFI C3 28 Sep 21:15:57 21:19:16 25° 65° (ENE) 21:22:36 145.870
ISS 28 Sep 21:16:51 21:19:42 28° 146° (SSE) 21:22:35 145.825
SEEDS 28 Sep 21:18:49 21:22:39 34° 264° (W) 21:26:33 437.485
CINEMA 3 28 Sep 21:19:16 21:22:32 20° 268° (W) 21:25:43 145.822/145.860
CUTE 1.7 + AOD 2 28 Sep 21:19:32 21:23:05 25° 267° (W) 21:26:39 437.475
CANX-2 28 Sep 21:21:17 21:24:36 22° 268° (W) 21:27:57 2200.000
Oscar 11 28 Sep 21:21:52 21:26:08 66° 73° (ENE) 21:30:28 145.826/435.025
PRISM 28 Sep 21:24:05 21:26:48 17° 91° (E) 21:29:30 437.425
ZACube-1 28 Sep 21:25:50 21:29:57 73° 74° (ENE) 21:34:07 437.345
SO-50 28 Sep 21:33:42 21:36:49 17° 17° (NNE) 21:39:52 436.795
AAUSAT CUBESAT 2 28 Sep 21:38:35 21:42:27 37° 263° (W) 21:46:22 437.432
HUMSAT D 28 Sep 21:38:46 21:42:03 24° 63° (ENE) 21:45:23 437.325/437.525
HO-68 28 Sep 21:47:06 21:52:56 26° 269° (W) 21:58:47 435.675
STRAND 1 28 Sep 21:48:51 21:53:41 42° 294° (WNW) 21:58:31 437.568
Cosmos 2499 28 Sep 21:50:25 21:57:10 38° 273° (W) 22:04:22 435.465 / 435.565
AO-85 28 Sep 22:07:28 22:12:34 70° 127° (SE) 22:17:20 145.980
FUNcube-1 28 Sep 22:19:53 22:23:40 34° 264° (W) 22:27:29 145.935
CUBEBUG 2 28 Sep 22:21:03 22:23:37 16° 271° (W) 22:26:11 437.445
COMPASS 1 28 Sep 22:26:56 22:28:20 11° 274° (W) 22:29:44 437.405
VELOX 1 28 Sep 22:32:32 22:33:34 11° 53° (NE) 22:34:38 145.980
CUBEBUG 1 28 Sep 22:32:59 22:35:01 13° 55° (NE) 22:37:01 437.445
ESTCUBE 1 28 Sep 22:34:57 22:38:13 20° 59° (ENE) 22:41:30 437.505/2401.250
UWE-3 28 Sep 22:37:02 22:39:36 16° 271° (W) 22:42:10 435.000/436.395/437.385
DANDE 28 Sep 22:37:41 22:42:32 24° 307° (NW) 22:48:19 436.750
CUSAT 1 28 Sep 22:42:20 22:46:21 15° 317° (NW) 22:50:36 437.405
ANTELSAT 28 Sep 22:42:37 22:45:41 18° 91° (E) 22:48:45 437.575/2403.000
GONETS M04 28 Sep 22:44:20 22:50:09 20° 287° (WNW) 22:55:57
M-CUBED/EXP-1 PRIME 28 Sep 22:49:15 22:51:21 14° 54° (NE) 22:53:22 437.505
DELFI C3 28 Sep 22:50:15 22:53:58 36° 263° (W) 22:57:43 145.870
ISS 28 Sep 22:52:41 22:55:58 86° 347° (NNW) 22:59:16 145.825
PRISM 28 Sep 22:58:23 23:02:28 56° 289° (WNW) 23:06:30 437.425
RS-15 28 Sep 22:58:33 23:10:17 59° 326° (NW) 23:22:32 29.354- 29.394
Oscar 11 28 Sep 23:00:08 23:02:44 16° 271° (W) 23:05:21 145.826/435.025
TIGRISAT 28 Sep 23:02:24 23:06:06 26° 94° (E) 23:09:50 435.000
ZACube-1 28 Sep 23:04:51 23:06:47 13° 273° (W) 23:08:44 437.345
SPROUT 28 Sep 23:09:08 23:10:58 13° 56° (NE) 23:12:47 437.525
HUMSAT D 28 Sep 23:13:38 23:17:30 40° 262° (W) 23:21:26 437.325/437.525
SO-50 28 Sep 23:13:58 23:18:26 45° 40° (NE) 23:22:47 436.795
AISAT 28 Sep 23:22:02 23:25:50 28° 64° (ENE) 23:29:39 437.250
UKube-1 28 Sep 23:24:22 23:27:05 16° 58° (ENE) 23:29:48 .
UNISAT 6 28 Sep 23:42:58 23:47:21 66° 102° (ESE) 23:51:49 437.425
AUBIESAT-1 28 Sep 23:43:34 23:47:09 35° 63° (ENE) 23:50:31 437.475
AO-85 28 Sep 23:49:04 23:53:25 29° 326° (NW) 23:57:29 145.980
DX 1 28 Sep 23:53:31 23:57:30 35° 66° (ENE) 00:01:28 434.975-435.025
50 SAT 29 Sep 00:00:20 00:03:52 52° 72° (ENE) 00:07:28 437.505
QB50P2 29 Sep 00:02:37 00:05:30 18° 91° (E) 00:08:23 145.880/145.840
VELOX 1 29 Sep 00:04:47 00:09:12 65° 71° (ENE) 00:13:38 145.980
POLYITAN 1 29 Sep 00:04:49 00:07:42 18° 91° (E) 00:10:35 437.675
CUBEBUG 1 29 Sep 00:06:11 00:10:37 83° 73° (ENE) 00:15:02 437.445
ESTCUBE 1 29 Sep 00:10:07 00:14:36 62° 258° (WSW) 00:19:09 437.505/2401.250
ANTELSAT 29 Sep 00:18:25 00:22:45 59° 289° (WNW) 00:27:09 437.575/2403.000
M-CUBED/EXP-1 PRIME 29 Sep 00:21:28 00:25:30 76° 250° (WSW) 00:29:14 437.505
TISAT 1 29 Sep 00:24:43 00:27:14 16° 58° (ENE) 00:29:45 437.305
ISS 29 Sep 00:29:20 00:32:36 67° 6° (N) 00:35:53 145.825
Cosmos 2491 29 Sep 00:32:42 00:39:16 22° 53° (NE) 00:45:47 435.465 / 435.565
JAS-2 29 Sep 00:36:47 00:44:07 40° 93° (E) 00:51:09 435.910
TIGRISAT 29 Sep 00:38:50 00:42:56 40° 292° (WNW) 00:47:06 435.000
BUGSAT 1 29 Sep 00:39:29 00:41:43 14° 89° (E) 00:43:57 437.445
DUCHIFAT 1 29 Sep 00:40:33 00:44:22 33° 97° (E) 00:48:11 145.980
SPROUT 29 Sep 00:41:58 00:46:14 85° 72° (ENE) 00:50:31 437.525
QB50P1 29 Sep 00:43:48 00:47:48 41° 98° (E) 00:51:47 145.935-145.965
SO-50 29 Sep 00:54:40 00:58:48 34° 241° (WSW) 01:02:51 436.795
POPSAT HIP 1 29 Sep 00:57:21 01:01:30 55° 101° (E) 01:05:38 437.405
AISAT 29 Sep 00:58:02 01:02:12 38° 262° (W) 01:06:22 437.250
UKube-1 29 Sep 00:58:18 01:02:37 73° 256° (WSW) 01:06:59 .
NANOSAT C BR1 29 Sep 01:12:52 01:17:05 76° 103° (ESE) 01:21:18 145.865
RS-15 29 Sep 01:14:30 01:25:48 41° 358° (N) 01:37:20 29.354- 29.394
ITUPSAT 1 29 Sep 01:15:39 01:18:09 14° 54° (NE) 01:20:41 437.325
AUBIESAT-1 29 Sep 01:18:28 01:21:41 24° 258° (WSW) 01:24:45 437.475
UNISAT 6 29 Sep 01:20:41 01:23:40 18° 300° (WNW) 01:26:41 437.425
SWISSCUBE 29 Sep 01:27:05 01:30:24 19° 58° (ENE) 01:33:45 437.505
BEESAT 3 29 Sep 01:29:24 01:33:01 36° 121° (ESE) 01:36:39 437.485
DX 1 29 Sep 01:29:52 01:33:44 30° 264° (W) 01:37:35 434.975-435.025
AO-85 29 Sep 01:32:50 01:35:16 14° 349° (N) 01:37:38 145.980
50 SAT 29 Sep 01:35:37 01:37:41 14° 270° (W) 01:39:46 437.505
QB50P2 29 Sep 01:37:31 01:41:39 55° 289° (WNW) 01:45:47 145.880/145.840
BEESAT 29 Sep 01:39:35 01:43:11 22° 59° (ENE) 01:46:49 436.000
POLYITAN 1 29 Sep 01:39:43 01:43:51 55° 289° (WNW) 01:47:59 437.675
Oscar 19 29 Sep 01:40:51 01:44:03 16° 88° (E) 01:47:13 437.125/150
YUBILEINY 29 Sep 01:42:18 01:46:50 15° 70° (ENE) 01:51:22 435.215
VELOX 1 29 Sep 01:43:15 01:46:07 17° 270° (W) 01:48:59 145.980
CUBEBUG 1 29 Sep 01:45:28 01:47:29 13° 273° (W) 01:49:31 437.445
TISAT 1 29 Sep 01:58:13 02:02:23 71° 257° (WSW) 02:06:35 437.305
ISS 29 Sep 02:05:53 02:09:06 54° 205° (SSW) 02:12:19 145.825
BUGSAT 1 29 Sep 02:13:32 02:17:32 63° 287° (WNW) 02:21:30 437.445
DUCHIFAT 1 29 Sep 02:16:23 02:20:00 29° 295° (WNW) 02:23:37 145.980
QB50P1 29 Sep 02:19:59 02:23:24 25° 297° (WNW) 02:26:50 145.935-145.965
SPROUT 29 Sep 02:21:10 02:22:47 12° 273° (W) 02:24:24 437.525
JAS-2 29 Sep 02:21:40 02:29:22 58° 294° (WNW) 02:36:48 435.910
BEESAT 2 29 Sep 02:26:59 02:30:55 68° 126° (SE) 02:34:54 435.950
Cosmos 2491 29 Sep 02:28:55 02:37:50 77° 78° (ENE) 02:46:40 435.465 / 435.565
POPSAT HIP 1 29 Sep 02:33:55 02:36:57 19° 299° (WNW) 02:39:58 437.405
Gurwin Techsat 1B 29 Sep 02:47:07 02:51:48 30° 94° (E) 02:56:27 435.225
NANOSAT C BR1 29 Sep 02:49:54 02:52:18 15° 302° (WNW) 02:54:42 145.865
ITUPSAT 1 29 Sep 02:50:29 02:55:15 81° 72° (ENE) 03:00:05 437.325
MOZHAYETS 4 29 Sep 02:55:31 02:58:54 21° 60° (ENE) 03:02:19
SWISSCUBE 29 Sep 03:02:57 03:07:42 72° 256° (WSW) 03:12:31 437.505
BEESAT 3 29 Sep 03:07:04 03:10:41 34° 321° (NW) 03:14:21 437.485
KKS-1 29 Sep 03:12:11 03:15:25 20° 60° (ENE) 03:18:40 437.445
AO-85 29 Sep 03:14:59 03:17:33 15° 14° (NNE) 03:20:01 145.980
BEESAT 29 Sep 03:15:53 03:20:35 60° 258° (WSW) 03:25:21 436.000
Oscar 19 29 Sep 03:18:51 03:24:02 82° 288° (WNW) 03:29:11 437.125/150
AIST 2 29 Sep 03:24:25 03:26:26 13° 111° (ESE) 03:28:27 435.215
RS-15 29 Sep 03:29:26 03:41:32 55° 31° (NNE) 03:53:35 29.354- 29.394
YUBILEINY 29 Sep 03:33:13 03:41:50 65° 93° (E) 03:50:28 435.215
Cosmos 2504 29 Sep 03:41:44 03:47:44 29° 83° (E) 03:53:37 435.465 / 435.565
STARS 29 Sep 03:42:27 03:45:39 20° 60° (ENE) 03:48:49 437.465
ISS 29 Sep 03:43:33 03:45:02 13° 223° (SW) 03:46:31 145.825
AO-7 29 Sep 03:56:03 04:02:36 25° 90° (E) 04:09:07 29.400- 29.500
CUSAT 1 29 Sep 04:02:20 04:06:08 14° 42° (NE) 04:09:47 437.405
BEESAT 2 29 Sep 04:05:52 04:09:07 23° 327° (NNW) 04:12:24 435.950
JAS-2 29 Sep 04:07:59 04:12:50 18° 316° (NW) 04:17:40 435.910
ITAMSAT 1 29 Sep 04:14:38 04:19:43 49° 99° (E) 04:24:47 435.822/435.867
PCSat 29 Sep 04:16:05 04:20:15 23° 109° (ESE) 04:24:26 145.827
CUBESAT XI-V 29 Sep 04:18:31 04:22:01 21° 60° (ENE) 04:25:32 437.345
Cosmos 2491 29 Sep 04:26:40 04:33:50 29° 281° (W) 04:40:57 435.465 / 435.565
Gurwin Techsat 1B 29 Sep 04:26:51 04:31:57 46° 293° (WNW) 04:37:00 435.225
ITUPSAT 1 29 Sep 04:31:01 04:33:43 15° 272° (W) 04:36:25 437.325
MOZHAYETS 4 29 Sep 04:31:10 04:35:41 60° 260° (W) 04:40:16
AIST 1 29 Sep 04:38:38 04:40:31 13° 82° (E) 04:42:23
